Location: Newark
(44.4156°N, 12.1972°E)
Time: 15:25:56
(UTC+00:00)

STARLINK-1111 - Pass Details

Date: 31 January 2020
Orbit: 549 x 550 km, 53.0° (Epoch: 28 February)

Event Time Altitude Azimuth Distance (km) Brightness Sun altitude
Rises 17:01:24 0° 304° (NW) 2,726 7.8 -8.1°
Reaches altitude 10° 17:03:40 10° 307° (NW) 1,830 6.8 -8.5°
Maximum altitude 17:07:48 64° 30° (NNE) 614 3.7 -9.2°
Drops below altitude 10° 17:11:55 10° 112° (ESE) 1,824 5.8 -9.9°
Enters shadow 17:12:25 - 113° (ESE) 2,020 6.0 -10.0°
